Perry, IA

7:42 PM CDT on April 22, 2018 (GMT -0500)
Perry Municipal

Weather History for KPRO - November, 2013

Change the Weather History Date:

Saturday, November 9, 2013

  Actual Average Record
Temperature  
Mean Temperature 45 °F -  
Max Temperature 56 °F 47 °F 71 °F (1980)
Min Temperature 34 °F 28 °F -3 °F (1991)
Degree Days  
Heating Degree Days 20    
Moisture  
Dew Point 32 °F    
Average Humidity 60    
Maximum Humidity 75    
Minimum Humidity 39    
Precipitation  
Precipitation 0.00 in - - ()
Sea Level Pressure  
Sea Level Pressure 30.07 in    
Wind  
Wind Speed 13 mph (WNW)    
Max Wind Speed 22 mph    
Max Gust Speed 31 mph    
Visibility 10 miles    
Events      
Averages and records for this station are not official NWS values.
T = Trace of Precipitation, MM = Missing Value Source: NWS Daily Summary

Daily Weather History Graph

Daily Weather History Graph

Search for Another Location

Airport or City:

Astronomy

Nov. 09, 2013 Rise Set
Actual Time 6:59 AM CST 5:01 PM CST
Civil Twilight 6:29 AM CST 5:30 PM CST
Nautical Twilight 5:56 AM CST 6:04 PM CST
Astronomical Twilight 5:23 AM CST 6:36 PM CST
Moon 12:35 PM CST (11/9) 11:33 PM CST (11/9)
Length of Visible Light 11h 01m
Length of Day
10h 02m
Waxing Crescent, 44% of the Moon is Illuminated
Nov 9
Waxing Crescent
Nov 9
First Quarter
Nov 17
Full
Nov 25
Last Quarter
Dec 2
New

Hourly Weather History & Observations

Time (CST) Temp. Windchill Dew Point Humidity Pressure Visibility Wind Dir Wind Speed Gust Speed Precip Events Conditions
12:15 AM 48.2 °F - 35.4 °F 61% 29.86 in 10.0 mi West 16.1 mph - N/A   Clear
12:35 AM 46.8 °F - 35.4 °F 65% 29.86 in 10.0 mi West 13.8 mph - N/A   Clear
12:55 AM 45.5 °F 39.9 °F 34.9 °F 66% 29.86 in 10.0 mi West 11.5 mph - N/A   Clear
1:15 AM 44.8 °F 39.4 °F 34.3 °F 67% 29.86 in 10.0 mi WSW 10.4 mph - N/A   Clear
1:35 AM 44.6 °F 38.8 °F 33.8 °F 66% 29.86 in 10.0 mi WSW 11.5 mph - N/A   Clear
1:55 AM 44.2 °F 39.7 °F 33.8 °F 67% 29.87 in 10.0 mi WSW 8.1 mph - N/A   Clear
2:15 AM 42.1 °F 36.6 °F 33.3 °F 71% 29.87 in 10.0 mi WSW 9.2 mph - N/A   Clear
2:35 AM 42.8 °F 37.0 °F 33.1 °F 69% 29.87 in 10.0 mi West 10.4 mph - N/A   Clear
2:55 AM 42.3 °F 36.8 °F 32.9 °F 69% 29.88 in 10.0 mi West 9.2 mph - N/A   Clear
3:15 AM 42.8 °F 37.5 °F 33.1 °F 69% 29.88 in 10.0 mi West 9.2 mph - N/A   Clear
3:35 AM 43.0 °F 37.2 °F 33.3 °F 69% 29.89 in 10.0 mi West 10.4 mph - N/A   Clear
3:55 AM 42.1 °F 36.1 °F 33.3 °F 71% 29.89 in 10.0 mi West 10.4 mph - N/A   Clear
4:15 AM 42.8 °F 37.0 °F 32.9 °F 68% 29.90 in 10.0 mi WSW 10.4 mph - N/A   Clear
4:35 AM 42.3 °F 36.8 °F 32.5 °F 68% 29.90 in 10.0 mi West 9.2 mph - N/A   Clear
4:55 AM 43.7 °F 37.7 °F 32.7 °F 65% 29.91 in 10.0 mi West 11.5 mph - N/A   Clear
5:15 AM 42.1 °F 35.2 °F 32.5 °F 69% 29.92 in 10.0 mi West 12.7 mph - N/A   Clear
5:35 AM 41.9 °F 35.0 °F 32.2 °F 68% 29.93 in 10.0 mi West 12.7 mph - N/A   Clear
5:55 AM 40.6 °F 33.8 °F 32.2 °F 72% 29.94 in 10.0 mi West 11.5 mph - N/A   Clear
6:15 AM 40.8 °F 34.1 °F 32.0 °F 71% 29.95 in 10.0 mi West 11.5 mph - N/A   Clear
6:35 AM 40.1 °F 32.4 °F 32.2 °F 73% 29.96 in 10.0 mi West 13.8 mph - N/A   Clear
6:55 AM 40.5 °F 32.5 °F 32.0 °F 72% 29.97 in 10.0 mi West 15.0 mph - N/A   Clear
7:15 AM 40.5 °F 32.5 °F 32.2 °F 72% 29.97 in 10.0 mi West 15.0 mph - N/A   Clear
7:35 AM 40.1 °F 32.0 °F 32.2 °F 73% 29.99 in 10.0 mi West 15.0 mph - N/A   Clear
7:55 AM 41.9 °F 33.7 °F 32.4 °F 69% 29.99 in 10.0 mi West 17.3 mph - N/A   Clear
8:15 AM 44.4 °F 36.6 °F 32.4 °F 63% 30.01 in 10.0 mi WNW 18.4 mph 23.0 mph N/A   Clear
8:35 AM 46.4 °F 39.0 °F 32.4 °F 58% 30.02 in 10.0 mi WNW 19.6 mph 25.3 mph N/A   Clear
8:55 AM 46.9 °F - 32.5 °F 57% 30.03 in 10.0 mi WNW 16.1 mph 26.5 mph N/A   Clear
9:15 AM 48.2 °F - 33.1 °F 56% 30.03 in 10.0 mi WNW 15.0 mph 23.0 mph N/A   Clear
9:35 AM 49.5 °F - 34.2 °F 56% 30.04 in 10.0 mi NW 13.8 mph 20.7 mph N/A   Clear
9:55 AM 50.4 °F - 34.9 °F 55% 30.05 in 10.0 mi WNW 17.3 mph 23.0 mph N/A   Clear
10:15 AM 51.1 °F - 35.2 °F 55% 30.06 in 10.0 mi NW 18.4 mph 23.0 mph N/A   Clear
10:35 AM 51.1 °F - 35.1 °F 54% 30.07 in 10.0 mi WNW 18.4 mph 24.2 mph N/A   Clear
10:55 AM 52.2 °F - 34.7 °F 51% 30.08 in 10.0 mi WNW 19.6 mph 26.5 mph N/A   Clear
11:15 AM 52.3 °F - 34.0 °F 50% 30.08 in 10.0 mi NW 16.1 mph 25.3 mph N/A   Clear
11:35 AM 52.5 °F - 33.6 °F 49% 30.09 in 10.0 mi WNW 18.4 mph 23.0 mph N/A   Clear
11:55 AM 53.8 °F - 33.8 °F 47% 30.09 in 10.0 mi WNW 17.3 mph 23.0 mph N/A   Clear
12:15 PM 54.5 °F - 33.3 °F 45% 30.09 in 10.0 mi WNW 15.0 mph 21.9 mph N/A   Clear
12:35 PM 55.8 °F - 33.3 °F 43% 30.08 in 10.0 mi NW 15.0 mph 23.0 mph N/A   Clear
12:55 PM 55.9 °F - 33.4 °F 43% 30.08 in 10.0 mi West 18.4 mph 21.9 mph N/A   Clear
1:15 PM 56.3 °F - 32.0 °F 40% 30.09 in 10.0 mi WNW 17.3 mph 28.8 mph N/A   Clear
1:35 PM 55.9 °F - 32.2 °F 41% 30.09 in 10.0 mi NW 16.1 mph 23.0 mph N/A   Clear
1:55 PM 56.7 °F - 32.0 °F 39% 30.09 in 10.0 mi NW 13.8 mph 23.0 mph N/A   Clear
2:15 PM 56.7 °F - 32.0 °F 39% 30.10 in 10.0 mi WNW 18.4 mph 24.2 mph N/A   Clear
2:35 PM 56.5 °F - 32.0 °F 39% 30.10 in 10.0 mi WNW 15.0 mph 24.2 mph N/A   Clear
2:55 PM 56.8 °F - 32.2 °F 39% 30.11 in 10.0 mi WNW 19.6 mph 25.3 mph N/A   Clear
3:15 PM 56.5 °F - 32.2 °F 40% 30.11 in 10.0 mi WNW 19.6 mph 27.6 mph N/A   Clear
3:35 PM 55.9 °F - 32.0 °F 40% 30.11 in 10.0 mi WNW 18.4 mph 24.2 mph N/A   Clear
3:55 PM 55.4 °F - 31.5 °F 40% 30.12 in 10.0 mi WNW 21.9 mph 31.1 mph N/A   Clear
4:15 PM 54.3 °F - 31.8 °F 42% 30.13 in 10.0 mi NW 15.0 mph 21.9 mph N/A   Clear
4:35 PM 52.9 °F - 32.0 °F 45% 30.14 in 10.0 mi WNW 15.0 mph 21.9 mph N/A   Clear
4:55 PM 51.4 °F - 32.0 °F 47% 30.15 in 10.0 mi NW 11.5 mph - N/A   Clear
5:15 PM 49.6 °F - 32.0 °F 51% 30.16 in 10.0 mi NW 10.4 mph - N/A   Clear
5:35 PM 48.7 °F - 32.0 °F 52% 30.16 in 10.0 mi NW 9.2 mph - N/A   Clear
5:55 PM 47.7 °F - 32.5 °F 56% 30.17 in 10.0 mi NW 9.2 mph - N/A   Clear
6:15 PM 45.9 °F 42.3 °F 32.7 °F 60% 30.19 in 10.0 mi NW 6.9 mph - N/A   Clear
6:35 PM 44.2 °F 39.7 °F 32.5 °F 63% 30.20 in 10.0 mi WNW 8.1 mph - N/A   Clear
6:55 PM 44.2 °F 39.7 °F 32.7 °F 64% 30.21 in 10.0 mi NW 8.1 mph - N/A   Clear
7:15 PM 43.9 °F 39.3 °F 32.0 °F 63% 30.21 in 10.0 mi NW 8.1 mph - N/A   Clear
7:35 PM 43.0 °F 38.2 °F 31.8 °F 65% 30.23 in 10.0 mi NW 8.1 mph - N/A   Clear
7:55 PM 42.6 °F 37.2 °F 32.0 °F 66% 30.23 in 10.0 mi NW 9.2 mph - N/A   Clear
8:35 PM 41.5 °F 35.9 °F 32.0 °F 69% 30.25 in 10.0 mi WNW 9.2 mph - N/A   Clear
8:55 PM 39.4 °F 33.2 °F 32.0 °F 75% 30.26 in 10.0 mi WNW 9.2 mph - N/A   Clear
9:15 PM 40.1 °F 34.1 °F 32.0 °F 73% 30.27 in 10.0 mi NW 9.2 mph - N/A   Clear
9:35 PM 40.3 °F 33.9 °F 31.8 °F 72% 30.27 in 10.0 mi NW 10.4 mph - N/A   Clear
9:55 PM 38.8 °F 32.6 °F 31.3 °F 74% 30.28 in 10.0 mi NW 9.2 mph - N/A   Clear
10:15 PM 40.1 °F 34.1 °F 29.3 °F 65% 30.30 in 10.0 mi NW 9.2 mph - N/A   Clear
10:35 PM 38.8 °F 32.1 °F 28.9 °F 68% 30.30 in 10.0 mi NW 10.4 mph - N/A   Clear
10:55 PM 37.8 °F 31.3 °F 28.4 °F 69% 30.31 in 10.0 mi NW 9.2 mph - N/A   Clear
11:15 PM 36.5 °F 31.0 °F 28.2 °F 72% 30.31 in 10.0 mi NW 6.9 mph - N/A   Clear
11:35 PM 34.9 °F 28.3 °F 27.5 °F 74% 30.32 in 10.0 mi WNW 8.1 mph - N/A   Clear
11:55 PM 35.2 °F 28.8 °F 27.5 °F 73% 30.32 in 10.0 mi NW 8.1 mph - N/A   Clear